SES-1

Last updated on Sat Aug 15 2026 00:02:58 GMT+0000 (Coordinated Universal Time)

1 36516U 10016A 26226.55697659 -.00000130 00000+0 00000+0 0 9992 2 36516 0.0673 276.5400 0002323 229.0107 276.9239 1.00271823 59617
UTC large
Height (km)
Speed (km/s)
/
Latitude / Longitude
Inclination (degrees)
Orbital Period (minutes)
Azimuth
Elevation
Range (km)
Doppler Factor

Next 0 passes for location: London (51.5072 / 0.1276)

No passes found over London.
SES-1